Weather History for KPHD - November, 2012

Change the Weather History Date:

Monday, November 26, 2012

  Actual Average Record
Temperature  
Mean Temperature 36 °F 39 °F  
Max Temperature 46 °F 48 °F 67 °F (1987)
Min Temperature 26 °F 31 °F 10 °F (2005)
Degree Days  
Heating Degree Days 29 26  
Month to date heating degree days 642 553  
Since 1 July heating degree days 1154 1052  
Cooling Degree Days 0 0  
Month to date cooling degree days 0 0  
Year to date cooling degree days 981 697  
Moisture  
Dew Point 25 °F    
Average Humidity 63    
Maximum Humidity 85    
Minimum Humidity 41    
Precipitation  
Precipitation 0.00 in 0.11 in - ()
Month to date precipitation 0.60 2.79  
Year to date precipitation 28.31 35.75  
Sea Level Pressure  
Sea Level Pressure 30.18 in    
Wind  
Wind Speed 2 mph (North)    
Max Wind Speed 6 mph    
Max Gust Speed 10 mph    
Visibility 10 miles    
Events      
T = Trace of Precipitation, MM = Missing Value Source: NWS Daily Summary

Daily Weather History Graph

Daily Weather History Graph

Search for Another Location

Airport or City:

Trip Planner

Search our weather history database for the weather conditions in past years. The results will help you decide how hot, cold, wet, or windy it might be!

Date:

Astronomy

Nov. 26, 2012 Rise Set
Actual Time 7:24 AM EST 5:01 PM EST
Civil Twilight 6:54 AM EST 5:31 PM EST
Nautical Twilight 6:21 AM EST 6:04 PM EST
Astronomical Twilight 5:48 AM EST 6:37 PM EST
Moon 3:52 PM EST (11/26) 5:33 AM EST (11/26)
Length of Visible Light 10h 36m
Length of Day
9h 36m
Waxing Gibbous, 97% of the Moon is Illuminated
Nov 26
Waxing Gibbous
Nov 28
Full
Dec 6
Last Quarter
Dec 13
New
Dec 20
First Quarter

Hourly Weather History & Observations

Time (EST) Temp. Windchill Dew Point Humidity Pressure Visibility Wind Dir Wind Speed Gust Speed Precip Events Conditions
12:53 AM 28.9 °F - 24.1 °F 82% 30.05 in 10.0 mi Calm Calm - N/A   Clear
1:53 AM 30.0 °F - 25.0 °F 82% 30.06 in 10.0 mi Calm Calm - N/A   Clear
2:53 AM 28.9 °F - 24.1 °F 82% 30.07 in 10.0 mi Calm Calm - N/A   Mostly Cloudy
3:53 AM 30.0 °F - 25.0 °F 82% 30.08 in 10.0 mi Calm Calm - N/A   Overcast
4:53 AM 30.9 °F - 25.0 °F 79% 30.12 in 10.0 mi Calm Calm - N/A   Overcast
5:53 AM 32.0 °F - 26.1 °F 79% 30.14 in 10.0 mi Calm Calm - N/A   Overcast
6:53 AM 28.9 °F - 24.1 °F 82% 30.16 in 10.0 mi Calm Calm - N/A   Clear
7:53 AM 26.1 °F - 23.0 °F 88% 30.19 in 5.0 mi Calm Calm - N/A   Clear
8:53 AM 30.9 °F - 26.1 °F 82% 30.21 in 7.0 mi Calm Calm - N/A   Clear
9:53 AM 37.0 °F - 28.0 °F 70% 30.22 in 8.0 mi Calm Calm - N/A   Clear
10:53 AM 39.9 °F 37.8 °F 27.0 °F 60% 30.23 in 10.0 mi West 3.5 mph - N/A   Clear
11:53 AM 41.0 °F 39.0 °F 26.1 °F 55% 30.22 in 10.0 mi ESE 3.5 mph - N/A   Clear
12:53 PM 43.0 °F - 26.1 °F 51% 30.19 in 10.0 mi Calm Calm - N/A   Clear
1:53 PM 45.0 °F 43.5 °F 25.0 °F 46% 30.19 in 10.0 mi Variable 3.5 mph - N/A   Clear
2:53 PM 45.0 °F 43.5 °F 25.0 °F 46% 30.19 in 10.0 mi ESE 3.5 mph - N/A   Scattered Clouds
3:53 PM 45.0 °F 43.5 °F 23.0 °F 42% 30.19 in 10.0 mi WNW 3.5 mph - N/A   Clear
4:53 PM 44.1 °F - 23.0 °F 43% 30.18 in 10.0 mi Calm Calm - N/A   Scattered Clouds
5:53 PM 41.0 °F - 26.1 °F 55% 30.19 in 10.0 mi Calm Calm - N/A   Overcast
6:53 PM 41.0 °F 39.0 °F 27.0 °F 57% 30.22 in 10.0 mi NNW 3.5 mph - N/A   Overcast
7:53 PM 41.0 °F - 26.1 °F 55% 30.22 in 10.0 mi Calm Calm - N/A   Overcast
8:53 PM 39.9 °F 36.7 °F 25.0 °F 55% 30.24 in 10.0 mi NNE 4.6 mph - N/A   Overcast
9:53 PM 39.0 °F 36.8 °F 26.1 °F 60% 30.23 in 10.0 mi NNW 3.5 mph - N/A   Overcast
10:53 PM 37.9 °F 35.5 °F 26.1 °F 62% 30.24 in 10.0 mi North 3.5 mph - N/A   Overcast
11:53 PM 37.9 °F 35.5 °F 26.1 °F 62% 30.25 in 10.0 mi North 3.5 mph - N/A   Overcast